Whippany, NJ

7:57 AM EST on December 09, 2016 (GMT -0500)
Morristown Municipal

Weather History for KMMU - August, 2013

Change the Weather History Date:

Wednesday, August 7, 2013

  Actual Average Record
Temperature  
Mean Temperature 70 °F -  
Max Temperature 77 °F 84 °F 97 °F (1955)
Min Temperature 64 °F 60 °F 47 °F (1934)
Cooling Degree Days 6    
Growing Degree Days 20 (Base 50)    
Moisture  
Dew Point 64 °F    
Average Humidity 84    
Maximum Humidity 94    
Minimum Humidity 65    
Precipitation  
Precipitation 0.00 in - - ()
Sea Level Pressure  
Sea Level Pressure 30.12 in    
Wind  
Wind Speed 1 mph (SSE)    
Max Wind Speed 10 mph    
Max Gust Speed -    
Visibility 9 miles    
Events Rain    
Averages and records for this station are not official NWS values.
T = Trace of Precipitation, MM = Missing Value Source: NWS Daily Summary

Daily Weather History Graph

Daily Weather History Graph

Search for Another Location

Airport or City:

Trip Planner

Search our weather history database for the weather conditions in past years. The results will help you decide how hot, cold, wet, or windy it might be!

Date:

Astronomy

Aug. 07, 2013 Rise Set
Actual Time 6:00 AM EDT 8:05 PM EDT
Civil Twilight 5:29 AM EDT 8:36 PM EDT
Nautical Twilight 4:52 AM EDT 9:12 PM EDT
Astronomical Twilight 4:12 AM EDT 9:53 PM EDT
Moon 6:47 AM EDT (8/7) 8:10 PM EDT (8/7)
Length of Visible Light 15h 06m
Length of Day
14h 05m
New Moon, 1% of the Moon is Illuminated
Aug 7
New Moon
Aug 14
First Quarter
Aug 20
Full
Aug 28
Last Quarter
Sep 5
New

Hourly Weather History & Observations

Time (EDT) Temp. Dew Point Humidity Pressure Visibility Wind Dir Wind Speed Gust Speed Precip Events Conditions
12:15 AM 68.0 °F 62.6 °F 83% 30.12 in 10.0 mi Calm Calm - N/A   Overcast
12:35 AM 68.0 °F 62.6 °F 83% 30.13 in 10.0 mi Calm Calm - N/A   Overcast
12:55 AM 66.2 °F 62.6 °F 88% 30.13 in 10.0 mi Calm Calm - N/A   Overcast
1:15 AM 66.2 °F 62.6 °F 88% 30.13 in 10.0 mi Calm Calm - N/A   Mostly Cloudy
1:35 AM 66.2 °F 62.6 °F 88% 30.13 in 10.0 mi Calm Calm - N/A   Overcast
1:55 AM 68.0 °F 62.6 °F 83% 30.13 in 10.0 mi Calm Calm - N/A   Overcast
2:15 AM 66.2 °F 62.6 °F 88% 30.13 in 10.0 mi Calm Calm - N/A   Overcast
2:35 AM 66.2 °F 62.6 °F 88% 30.13 in 10.0 mi Calm Calm - N/A   Mostly Cloudy
2:55 AM 64.4 °F 60.8 °F 88% 30.12 in 7.0 mi Calm Calm - N/A   Scattered Clouds
3:15 AM 64.4 °F 60.8 °F 88% 30.13 in 10.0 mi Calm Calm - N/A   Clear
3:35 AM 64.4 °F 60.8 °F 88% 30.13 in 7.0 mi Calm Calm - N/A   Scattered Clouds
3:55 AM 64.4 °F 60.8 °F 88% 30.13 in 10.0 mi Calm Calm - N/A   Mostly Cloudy
4:15 AM 64.4 °F 60.8 °F 88% 30.13 in 7.0 mi Calm Calm - N/A   Overcast
4:35 AM 64.4 °F 62.6 °F 94% 30.14 in 7.0 mi Calm Calm - N/A   Overcast
4:55 AM 66.2 °F 62.6 °F 88% 30.13 in 7.0 mi Calm Calm - N/A   Overcast
5:15 AM 66.2 °F 62.6 °F 88% 30.14 in 10.0 mi Calm Calm - N/A   Overcast
5:35 AM 66.2 °F 62.6 °F 88% 30.13 in 7.0 mi Calm Calm - N/A   Overcast
5:55 AM 66.2 °F 62.6 °F 88% 30.14 in 10.0 mi Calm Calm - N/A   Overcast
6:15 AM 66.2 °F 64.4 °F 94% 30.14 in 10.0 mi Calm Calm - N/A   Overcast
6:35 AM 66.2 °F 62.6 °F 88% 30.14 in 7.0 mi Calm Calm - N/A   Overcast
6:45 AM 64.4 °F 62.6 °F 94% 30.15 in 8.0 mi Calm Calm - N/A   Overcast
7:45 AM 66.2 °F 64.4 °F 94% 30.15 in 10.0 mi Calm Calm - N/A   Overcast
8:45 AM 69.8 °F 66.2 °F 88% 30.14 in 10.0 mi Calm Calm - N/A   Overcast
9:45 AM 71.6 °F 64.4 °F 78% 30.14 in 8.0 mi South 6.9 mph - N/A Rain Light Rain
10:45 AM 71.6 °F 62.6 °F 73% 30.14 in 10.0 mi SSE 9.2 mph - N/A   Overcast
11:45 AM 73.4 °F 64.4 °F 73% 30.14 in 10.0 mi SSE 10.4 mph - N/A   Overcast
12:45 PM 75.2 °F 64.4 °F 69% 30.13 in 10.0 mi South 8.1 mph - N/A   Overcast
1:45 PM 77.0 °F 64.4 °F 65% 30.11 in 10.0 mi SSE 6.9 mph - N/A   Overcast
2:47 PM 77.0 °F 64.4 °F 65% 30.10 in 15.0 mi SSE 6.9 mph - N/A   Overcast
3:45 PM 77.0 °F 64.4 °F 65% 30.09 in 10.0 mi SSE 5.8 mph - N/A   Overcast
4:45 PM 75.2 °F 68.0 °F 78% 30.08 in 6.0 mi SSE 3.5 mph - N/A   Overcast
5:45 PM 71.6 °F 68.0 °F 88% 30.08 in 5.0 mi South 5.8 mph - N/A   Overcast
6:45 PM 73.4 °F 68.0 °F 83% 30.08 in 5.0 mi South 4.6 mph - N/A   Overcast
7:45 PM 71.6 °F 68.0 °F 88% 30.07 in 5.0 mi Calm Calm - N/A   Overcast
8:52 PM 71.6 °F 68.0 °F 88% 30.08 in 5.0 mi Calm Calm - N/A   Overcast
9:45 PM 71.6 °F 66.2 °F 83% 30.09 in 7.0 mi Calm Calm - N/A   Overcast
10:55 PM 73.4 °F 68.0 °F 83% 30.08 in 10.0 mi Calm Calm - N/A   Overcast
11:15 PM 73.4 °F 68.0 °F 83% 30.08 in 10.0 mi Calm Calm - N/A   Overcast
11:35 PM 73.4 °F 68.0 °F 83% 30.07 in 10.0 mi Calm Calm - N/A   Overcast
11:55 PM 73.4 °F 68.0 °F 83% 30.07 in 10.0 mi Calm Calm - N/A   Overcast